Location: ?ejeti?ky
(50.4060°N, 14.9016°E)
Time: 22:48:27
(UTC+00:00)

X-37B - Pass Details

Date: 10 December 2021
Orbit: 334 x 337 km, 45.0° (Epoch: 11 January)

Event Time Altitude Azimuth Distance (km) Brightness Sun altitude
Rises 16:40:32 0° 233° (SW) 2,099 5.7 -15.5°
Reaches altitude 10° 16:42:49 10° 216° (SW) 1,265 4.0 -15.9°
Maximum altitude 16:45:00 20° 165° (SSE) 846 2.3 -16.2°
Enters shadow 16:45:33 19° 148° (SSE) 878 2.2 -16.3°
